DLH5UJ EDDM-EPGD

Flight info

Callsign DLH5UJ
Flight time N/A
Altitude 34000
Route AKINI1Q/08L AKINI Y104 MAMOR L132 RUDNO T203 TIVDA DCT LEGAZ/N0454F350 DCT TOMTI DCT ATMIR P733 IRLUN
Aircraft A321/M-SDE3FGHIRWY/LB1

Departure

Time N/A
Airport Munich Airport (EDDM)

Arrival

Time 2026-04-30 18:49
Airport Gdańsk Lech Wałęsa Airport (EPGD)
Time Latitude Longitude Altitude Speed Heading
2026-04-30 17:39 49.47119 13.21099 27129 ft 406 kts 40°
2026-04-30 17:41 49.63826 13.43682 29657 ft 392 kts 41°
2026-04-30 17:42 49.67900 13.49230 30247 ft 389 kts 41°
2026-04-30 17:42 49.73946 13.57465 31140 ft 384 kts 41°
2026-04-30 17:43 49.77930 13.62912 31726 ft 380 kts 41°
2026-04-30 17:44 49.83823 13.70995 32583 ft 374 kts 41°
2026-04-30 17:44 49.89590 13.78935 33370 ft 369 kts 42°
2026-04-30 17:46 49.98946 13.91876 34957 ft 355 kts 42°
2026-04-30 17:47 50.06364 14.02182 35414 ft 365 kts 41°
2026-04-30 17:48 50.19803 14.20962 35422 ft 372 kts 42°
2026-04-30 17:50 50.35193 14.42651 35440 ft 373 kts 41°
2026-04-30 17:52 50.46774 14.59117 35446 ft 376 kts 41°
2026-04-30 17:54 50.65796 14.80962 35450 ft 378 kts 36°
2026-04-30 17:56 50.82872 15.00451 35441 ft 379 kts 36°
2026-04-30 17:58 50.95678 15.15192 35442 ft 379 kts 36°
2026-04-30 18:00 51.12695 15.34939 35444 ft 379 kts 36°
2026-04-30 18:01 51.23325 15.47350 35440 ft 378 kts 36°
2026-04-30 18:02 51.36085 15.62131 35440 ft 377 kts 36°
2026-04-30 18:04 51.48894 15.76709 35441 ft 375 kts 36°
2026-04-30 18:06 51.65817 15.96173 35429 ft 374 kts 36°
2026-04-30 18:08 51.80553 16.13265 35428 ft 372 kts 36°
2026-04-30 18:10 51.96639 16.32091 35426 ft 372 kts 36°
2026-04-30 18:11 52.11326 16.49445 35404 ft 375 kts 36°
2026-04-30 18:13 52.21866 16.61980 35407 ft 376 kts 36°
2026-04-30 18:14 52.32376 16.74535 35405 ft 375 kts 36°
2026-04-30 18:15 52.44950 16.89684 35412 ft 372 kts 36°
2026-04-30 18:16 52.53261 16.99745 35406 ft 370 kts 36°
2026-04-30 18:17 52.57404 17.04774 35406 ft 370 kts 36°
2026-04-30 18:18 52.63606 17.12344 35373 ft 369 kts 36°
2026-04-30 18:18 52.65660 17.14855 34862 ft 367 kts 36°
2026-04-30 18:18 52.67712 17.17365 34229 ft 366 kts 36°
2026-04-30 18:18 52.69748 17.19859 33641 ft 364 kts 36°
2026-04-30 18:19 52.71766 17.22332 33192 ft 358 kts 36°
2026-04-30 18:19 52.73759 17.24775 32708 ft 354 kts 36°
2026-04-30 18:19 52.75724 17.27187 32196 ft 351 kts 36°
2026-04-30 18:19 52.77676 17.29591 31696 ft 347 kts 36°
2026-04-30 18:20 52.79599 17.31964 31178 ft 344 kts 36°
2026-04-30 18:20 52.81508 17.34322 30655 ft 341 kts 36°
2026-04-30 18:20 52.83372 17.36630 30125 ft 338 kts 36°
2026-04-30 18:20 52.85265 17.38973 29593 ft 334 kts 36°
2026-04-30 18:21 52.87097 17.41239 29047 ft 332 kts 36°
2026-04-30 18:21 52.88944 17.43524 28498 ft 330 kts 36°
2026-04-30 18:21 52.90776 17.45790 27955 ft 328 kts 36°
2026-04-30 18:21 52.92603 17.48057 27396 ft 327 kts 36°
2026-04-30 18:22 52.94414 17.50311 26852 ft 325 kts 37°
2026-04-30 18:22 52.98005 17.54798 25728 ft 322 kts 36°
2026-04-30 18:22 52.99790 17.57029 25187 ft 320 kts 36°
2026-04-30 18:23 53.01564 17.59242 24654 ft 319 kts 36°
2026-04-30 18:23 53.03333 17.61450 24120 ft 317 kts 36°
2026-04-30 18:23 53.05093 17.63650 23576 ft 316 kts 36°
2026-04-30 18:23 53.06846 17.65844 23052 ft 315 kts 36°
2026-04-30 18:24 53.10317 17.70198 22009 ft 311 kts 36°
2026-04-30 18:24 53.12038 17.72358 21472 ft 309 kts 36°
2026-04-30 18:24 53.13751 17.74510 20962 ft 308 kts 36°
2026-04-30 18:25 53.15465 17.76665 20483 ft 308 kts 36°
2026-04-30 18:25 53.18857 17.80957 19540 ft 305 kts 36°
2026-04-30 18:25 53.20539 17.83092 19048 ft 303 kts 36°
2026-04-30 18:26 53.23881 17.87317 18244 ft 300 kts 36°
2026-04-30 18:26 53.25545 17.89421 17948 ft 301 kts 36°
2026-04-30 18:26 53.27215 17.91535 17637 ft 300 kts 36°
2026-04-30 18:27 53.30534 17.95745 17043 ft 298 kts 36°
2026-04-30 18:27 53.32182 17.97839 16743 ft 298 kts 36°
2026-04-30 18:28 53.35482 18.02043 16142 ft 298 kts 36°
2026-04-30 18:28 53.37125 18.04143 15842 ft 297 kts 36°
2026-04-30 18:28 53.40384 18.08306 15240 ft 296 kts 36°
2026-04-30 18:29 53.42021 18.10394 14940 ft 296 kts 36°
2026-04-30 18:29 53.46910 18.16647 14035 ft 294 kts 36°
2026-04-30 18:30 53.50158 18.20823 13429 ft 293 kts 36°
2026-04-30 18:30 53.53386 18.24989 12834 ft 292 kts 36°
2026-04-30 18:31 53.54996 18.27068 12537 ft 292 kts 36°
2026-04-30 18:31 53.58209 18.31223 11882 ft 290 kts 36°
2026-04-30 18:32 53.61384 18.35339 11114 ft 282 kts 36°
2026-04-30 18:32 53.62911 18.37321 10867 ft 274 kts 36°
2026-04-30 18:32 53.65870 18.41162 10361 ft 266 kts 36°
2026-04-30 18:33 53.67337 18.43077 10108 ft 267 kts 36°
2026-04-30 18:33 53.70247 18.46885 9598 ft 266 kts 36°
2026-04-30 18:33 53.71729 18.48832 9350 ft 267 kts 36°
2026-04-30 18:34 53.73173 18.50729 9100 ft 267 kts 36°
2026-04-30 18:34 53.76125 18.54584 8637 ft 267 kts 35°
2026-04-30 18:34 53.77590 18.56465 8424 ft 268 kts 35°
2026-04-30 18:35 53.79076 18.58364 8191 ft 269 kts 35°
2026-04-30 18:35 53.80586 18.60311 7965 ft 270 kts 35°
2026-04-30 18:35 53.82078 18.62231 7733 ft 270 kts 35°
2026-04-30 18:36 53.85010 18.66115 7318 ft 270 kts 36°
2026-04-30 18:36 53.86478 18.68115 7088 ft 270 kts 36°
2026-04-30 18:36 53.89335 18.72128 6656 ft 260 kts 37°
2026-04-30 18:37 53.90707 18.74067 6465 ft 254 kts 37°
2026-04-30 18:37 53.92039 18.75966 6280 ft 247 kts 38°
2026-04-30 18:37 53.93326 18.77836 6094 ft 239 kts 38°
2026-04-30 18:37 53.94538 18.79716 5878 ft 235 kts 40°
2026-04-30 18:38 53.95719 18.81599 5632 ft 231 kts 40°
2026-04-30 18:38 53.96875 18.83437 5407 ft 224 kts 38°
2026-04-30 18:38 53.98151 18.84822 5236 ft 214 kts 19°
2026-04-30 18:38 53.99572 18.85610 5024 ft 218 kts 15°
2026-04-30 18:39 54.01027 18.86390 4864 ft 219 kts 15°
2026-04-30 18:39 54.02504 18.87164 4666 ft 224 kts 15°
2026-04-30 18:39 54.03999 18.87927 4508 ft 226 kts 15°
2026-04-30 18:39 54.05521 18.88700 4300 ft 230 kts 14°
2026-04-30 18:40 54.07066 18.89481 4104 ft 233 kts 14°
2026-04-30 18:40 54.08634 18.90277 3947 ft 235 kts 15°
2026-04-30 18:40 54.10217 18.90990 3811 ft 235 kts
2026-04-30 18:40 54.11829 18.91279 3720 ft 233 kts 359°
2026-04-30 18:41 54.13454 18.91228 3550 ft 234 kts 357°
2026-04-30 18:41 54.15084 18.91130 3440 ft 233 kts 356°
2026-04-30 18:41 54.16689 18.91002 3366 ft 228 kts 355°
2026-04-30 18:41 54.18258 18.90841 3249 ft 225 kts 355°
2026-04-30 18:42 54.19812 18.90666 3147 ft 221 kts 355°
2026-04-30 18:42 54.22749 18.90352 3087 ft 207 kts 355°
2026-04-30 18:42 54.24175 18.90200 3046 ft 203 kts 355°
2026-04-30 18:45 54.30927 18.74101 3052 ft 189 kts 295°
2026-04-30 18:45 54.31431 18.72026 3041 ft 188 kts 295°
2026-04-30 18:45 54.31976 18.69995 3012 ft 189 kts 296°
2026-04-30 18:46 54.32501 18.67909 2897 ft 194 kts 294°
2026-04-30 18:46 54.33037 18.65754 2668 ft 196 kts 294°
2026-04-30 18:46 54.33547 18.63668 2318 ft 183 kts 294°
2026-04-30 18:46 54.34037 18.61739 2046 ft 169 kts 294°
2026-04-30 18:47 54.34464 18.59987 1836 ft 152 kts 291°
2026-04-30 18:47 54.34848 18.58377 1575 ft 141 kts 294°
2026-04-30 18:47 54.35227 18.56898 1405 ft 131 kts 293°
2026-04-30 18:47 54.35578 18.55449 1257 ft 134 kts 292°
2026-04-30 18:48 54.35960 18.53956 1149 ft 138 kts 294°
2026-04-30 18:48 54.36340 18.52430 956 ft 141 kts 293°
2026-04-30 18:48 54.36722 18.50871 740 ft 142 kts 293°
2026-04-30 18:48 54.37097 18.49312 568 ft 140 kts 293°
2026-04-30 18:49 54.37450 18.47866 468 ft 105 kts 292°
2026-04-30 18:49 54.37616 18.47195 460 ft 21 kts 292°
2026-04-30 18:49 54.37690 18.46962 456 ft 22 kts 307°
2026-04-30 18:49 54.37778 18.46804 458 ft 13 kts 320°
2026-04-30 18:50 54.37848 18.46713 459 ft 13 kts 322°
2026-04-30 18:50 54.37912 18.46627 459 ft 10 kts 323°
2026-04-30 18:50 54.37975 18.46583 459 ft 11 kts
2026-04-30 18:50 54.38039 18.46624 460 ft 9 kts 19°
2026-04-30 18:51 54.38081 18.46560 458 ft 6 kts 295°
2026-04-30 18:51 54.38098 18.46490 457 ft 7 kts 292°
2026-04-30 18:51 54.38120 18.46400 460 ft 9 kts 292°
2026-04-30 18:51 54.38131 18.46353 459 ft 3 kts 293°
2026-04-30 18:52 54.38145 18.46308 459 ft 5 kts 307°
2026-04-30 18:52 54.38172 18.46306 459 ft 3 kts 16°
2026-04-30 18:52 54.38188 18.46316 459 ft 2 kts 20°
2026-04-30 18:52 54.38192 18.46319 458 ft 0 kts 21°